Powrót do katalogu

SL-14 DEB

AktywnyPO
NORAD 45284·DEBRIS·🇷🇺 Russia

Wystrzelony Aug 15, 1991 z Plesetsk Cosmodrome

Loading…

Następne Przeloty (najbliższe 24 godziny)

TLE

ŚwieżeSource: Space-Track

Epoka: Sep 14, 2026, 13:23 UTC

1 45284U 91056W   26257.55766882 -.00005075  00000-0 -82307-2 0  9994
2 45284  82.5720  11.4849 0095860   1.6360 358.5074 13.46515169321177

Śledź SL-14 DEB w czasie rzeczywistym z AllMySat

Download on the App Store